{"data":{"norad_id":48574,"epoch":"2026-09-19T15:38:37.017312Z","epoch_age_seconds":110477,"freshness":"FRESH","line1":"1 48574U 21041X   26262.65181733  .00000193  00000+0  18018-4 0  9992","line2":"2 48574  53.1597 278.3120 0002845  30.7194 329.3973 15.31701867295355","mean_motion":15.31701867,"eccentricity":0.0002845,"inclination_deg":53.1597,"raan_deg":278.312,"arg_perigee_deg":30.7194,"mean_anomaly_deg":329.3973,"bstar":1.8018e-5,"rev_number":29535,"period_min":94.013073367887,"perigee_km":468.78592587967,"apogee_km":472.68293372323,"semimajor_km":6848.8714298015,"source":"CELESTRAK","updated_at":"2026-09-20T09:00:39.135344Z"}}